Regional Weather Roundup
Issued by NWS

Home | Current Version | Previous Version | Graphics & Text | Print | Product List | Glossary Off
Versions: 1 2 3 4 5 6 7 8 9 10 11 12 13 14 15 16 17 18 19 20 21 22 23 24 25 26 27 28 29 30 31 32 33 34 35 36 37 38 39 40 41 42 43 44 45 46 47 48 49 50

000
ASUS43 KMKX 182000
RWRWI

WISCONSIN REGIONAL WEATHER ROUNDUP
NATIONAL WEATHER SERVICE MILWAUKEE/SULLIVAN WI
300 PM CDT FRI APR 18 2014

NOTE: "FAIR" INDICATES FEW OR NO CLOUDS BELOW 12,000 FEET WITH NO
SIGNIFICANT WEATHER AND/OR OBSTRUCTIONS TO VISIBILITY.

WIZ001-002-006>008-014>016-023>028-182100-
NORTHWEST WISCONSIN

CITY           SKY/WX    TMP DP  RH WIND       PRES   REMARKS
SUPERIOR ARPT  SUNNY     37  23  55 NE7       30.41F WCI  32
ASHLAND        SUNNY     39  23  52 NE7       30.41F WCI  34
HAYWARD        SUNNY     44  18  35 E7        30.36F
SIREN          CLOUDY    45  19  34 S5        30.36F
RICE LAKE      MOSUNNY   45  27  49 CALM      30.38F
LADYSMITH      MOSUNNY   45  21  37 NE7       30.39S
EAU CLAIRE     SUNNY     50  20  30 VRB5      30.35F
MENOMONIE      CLEAR     49  22  35 CALM      30.36F
NEW RICHMOND   SUNNY     48  26  42 E5        30.35F
OSCEOLA        SUNNY     45  27  49 NE7       30.38F
$$

WIZ003>005-009-010-017-018-182100-
NORTH CENTRAL WISCONSIN

CITY           SKY/WX    TMP DP  RH WIND       PRES   REMARKS
WOODRUFF       SUNNY     45  21  37 N8        30.37R
RHINELANDER    SUNNY     40  16  37 VRB5      30.36S
EAGLE RIVER    SUNNY     38  18  43 N6        30.36S WCI  34
LAND O LAKES   SUNNY     38  23  54 N5        30.37S WCI  34
PHILLIPS       MOSUNNY   40  19  43 N7        30.36S WCI  35
TOMAHAWK       SUNNY     42  16  35 CALM      30.36S
MEDFORD        MOSUNNY   43  20  40 N6        30.36R
MERRILL        SUNNY     44  22  40 CALM      30.36R
$$

WIZ029-030-035-036-043>047-182100-
CENTRAL WISCONSIN

CITY           SKY/WX    TMP DP  RH WIND       PRES   REMARKS
WAUSAU         SUNNY     48  18  30 N5        30.33F
MOSINEE        SUNNY     46  25  42 NW8       30.36F
MARSHFIELD     SUNNY     49  23  36 VRB5      30.35R
STEVENS POINT  SUNNY     47  17  30 N8        30.35S
WAUPACA        SUNNY     54  16  22 N5        30.35F
WAUTOMA        NOT AVBL
WISC RAPIDS    SUNNY     51  21  30 NW9       30.36S
CAMP DOUGLAS   NOT AVBL
$$

WIZ011>013-019>022-031-037>040-048>050-182100-
NORTHEAST WISCONSIN

CITY           SKY/WX    TMP DP  RH WIND       PRES   REMARKS
ANTIGO         SUNNY     42  22  46 N6        30.35S
STURGEON BAY   SUNNY     43  25  49 N9        30.38S
GREEN BAY      SUNNY     47  29  49 E6        30.36
MANITOWOC      NOT AVBL
APPLETON       MOSUNNY   48  25  40 N9        30.36S
CLINTONVILLE   SUNNY     50  21  32 N8        30.34F
OSHKOSH        SUNNY     47  28  47 VRB6      30.36F
$$

WIZ032>034-041-042-053>061-182100-
SOUTHWEST WISCONSIN

CITY           SKY/WX    TMP DP  RH WIND       PRES   REMARKS
LA CROSSE      SUNNY     53  23  31 VRB5      30.35F
SPARTA         SUNNY     53  20  27 W7        30.36S
VIROQUA        FAIR      51  26  38 CALM      30.34F
BOSCOBEL       SUNNY     57  22  25 N3        30.34F
PRAIRIE DU CHI SUNNY     55  18  24 W6        30.33F
PLATTEVILLE    FAIR      55  27  35 NW5       30.34S
$$

WIZ056-057-062-063-064-067-068-182100-
SOUTH CENTRAL WISCONSIN

CITY           SKY/WX    TMP DP  RH WIND       PRES   REMARKS
BARABOO/DELLS  SUNNY     51  25  35 SE6       30.34S
LONE ROCK      NOT AVBL
WATERTOWN      SUNNY     50  29  43 N3        30.34F
MADISON        MOSUNNY   53  28  38 VRB5      30.34F
MIDDLETON      FAIR      53  25  33 N3        30.35S
MONROE           N/A     55  28  35 CALM      30.32S
JANESVILLE     SUNNY     57  27  30 CALM      30.32F
$$

WIZ051-052-058>065-066-070>072-182100-
SOUTHEAST WISCONSIN

CITY           SKY/WX    TMP DP  RH WIND       PRES   REMARKS
MILWAUKEE      MOSUNNY   43  31  62 NE10      30.37F
WAUKESHA       MOSUNNY   50  32  50 CALM      30.36
MILWAUKEE/TIMM SUNNY     45  28  53 E7        30.36F
RACINE         SUNNY     44  30  57 NE10      30.38F
BURLINGTON     SUNNY     54  30  40 CALM      30.32F
KENOSHA        SUNNY     46  33  60 NE12      30.35F
FOND DU LAC    SUNNY     46  29  51 NE9       30.36F
SHEBOYGAN      SUNNY     42  31  64 E12       30.37R
WEST BEND      SUNNY     50  28  43 NW5       30.34F
JUNEAU         SUNNY     49  25  38 N3        30.35F
$$

LSZ147-162-182100-
LAKE SUPERIOR

STATION/POSITION TIME  TEMP    WIND        PRES    WAVE
                       AIR SEA DIR/SP/G            HT/PER
                 (UTC) (F)     (DEG/KT/KT) (MB)    (FT/S)
DEVILS ISLAND    1900   34      CALM  /  1 1031.7R
PORT WING        1900   34      20/ 10/ 11 1030.1
SAXON HARBOR     1900           40/  6/  7 1030.5
$$

LMZ867-665-643>646-182100-
LAKE MICHIGAN

STATION/POSITION TIME  TEMP    WIND        PRES    WAVE
                       AIR SEA DIR/SP/G            HT/PER
                 (UTC) (F)     (DEG/KT/KT) (MB)    (FT/S)
NORTHPORT PIER   1900   37     330/  6/  7 1028.4F
SISTER BAY       1923   55        CALM       N/A
KEWAUNEE LAKESHO 1900   38      90/  7/  9 1029.3R
SHEBOYGAN LAKESH 1900   36      70/ 13/ 14 1029.5R
PORT WASHINGTON  1900   37      80/  6/  9 1029.1S
MILWAUKEE LAKESH 1900   36      50/ 10/ 12   N/A
KENOSHA   LAKESH 1900   36      40/ 12/ 14   N/A
$$

TC  - TEMPERATURE IN CELSIUS
VSB - VISIBILITY IN STATUTE MILES
WCI - WIND CHILL INDEX
HX  - HEAT INDEX




USA.gov is the U.S. government's official web portal to all federal, state and local government web resources and services.